Time,TemperatureF,DewpointF,PressureIn,WindDirection,WindDirectionDegrees,WindSpeedMPH,WindSpeedGustMPH,Humidity,HourlyPrecipIn,Conditions,Clouds,dailyrainin,SoftwareType,DateUTC
2013-05-04 00:03:00,48.8,47.4,29.85,North,0,0.0,4.0,95,0.00,,,-99.99,WeatherLink 5.7,2013-05-04 05:03:00,
2013-05-04 00:18:00,49.1,47.7,29.85,North,0,0.0,4.0,95,0.00,,,-99.99,WeatherLink 5.7,2013-05-04 05:18:00,
2013-05-04 00:33:00,49.2,47.8,29.85,NE,45,0.0,3.0,95,0.00,,,-99.99,WeatherLink 5.7,2013-05-04 05:33:00,
2013-05-04 00:48:00,49.2,47.8,29.84,NNE,22,0.0,6.0,95,0.00,,,-99.99,WeatherLink 5.7,2013-05-04 05:48:00,
2013-05-04 01:03:00,49.2,47.8,29.84,North,0,0.0,4.0,95,0.00,,,-99.99,WeatherLink 5.7,2013-05-04 06:03:00,
2013-05-04 01:18:00,49.4,48.0,29.84,North,0,1.0,6.0,95,0.00,,,-99.99,WeatherLink 5.7,2013-05-04 06:18:00,
2013-05-04 01:33:00,49.4,47.7,29.83,NE,45,0.0,6.0,94,0.00,,,-99.99,WeatherLink 5.7,2013-05-04 06:33:00,
2013-05-04 01:49:00,49.5,47.8,29.83,NE,45,0.0,4.0,94,0.00,,,-99.99,WeatherLink 5.7,2013-05-04 06:49:00,
2013-05-04 02:03:00,49.5,47.6,29.85,ESE,112,0.0,4.0,93,0.00,,,-99.99,WeatherLink 5.7,2013-05-04 07:03:00,
2013-05-04 02:18:00,49.6,47.7,29.85,SE,135,0.0,4.0,93,0.00,,,-99.99,WeatherLink 5.7,2013-05-04 07:18:00,
2013-05-04 02:33:00,49.5,47.6,29.84,North,-999,0.0,0.0,93,0.00,,,-99.99,WeatherLink 5.7,2013-05-04 07:33:00,
2013-05-04 02:48:00,49.4,47.5,29.84,ENE,67,0.0,2.0,93,0.00,,,-99.99,WeatherLink 5.7,2013-05-04 07:48:00,
2013-05-04 03:03:00,49.2,47.3,29.85,North,-999,0.0,0.0,93,0.00,,,-99.99,WeatherLink 5.7,2013-05-04 08:03:00,
2013-05-04 03:18:00,49.2,47.3,29.84,ENE,67,0.0,1.0,93,0.00,,,-99.99,WeatherLink 5.7,2013-05-04 08:18:00,
2013-05-04 03:33:00,48.9,47.0,29.84,ENE,67,0.0,1.0,93,0.00,,,-99.99,WeatherLink 5.7,2013-05-04 08:33:00,
2013-05-04 03:48:00,48.8,46.9,29.84,North,-999,0.0,0.0,93,0.00,,,-99.99,WeatherLink 5.7,2013-05-04 08:48:00,
2013-05-04 04:03:00,48.6,46.7,29.84,North,-999,0.0,0.0,93,0.00,,,-99.99,WeatherLink 5.7,2013-05-04 09:03:00,
2013-05-04 04:18:00,48.6,46.7,29.84,ENE,67,0.0,1.0,93,0.00,,,-99.99,WeatherLink 5.7,2013-05-04 09:18:00,
2013-05-04 04:33:00,48.6,46.7,29.84,ENE,67,0.0,2.0,93,0.00,,,-99.99,WeatherLink 5.7,2013-05-04 09:33:00,
2013-05-04 04:48:00,48.6,46.7,29.85,North,-999,0.0,0.0,93,0.00,,,-99.99,WeatherLink 5.7,2013-05-04 09:48:00,
2013-05-04 05:03:00,48.5,46.6,29.85,ENE,67,0.0,2.0,93,0.00,,,-99.99,WeatherLink 5.7,2013-05-04 10:03:00,
2013-05-04 05:18:00,48.3,46.4,29.84,North,0,0.0,4.0,93,0.00,,,-99.99,WeatherLink 5.7,2013-05-04 10:18:00,
2013-05-04 05:33:00,48.3,46.4,29.84,NNE,22,0.0,5.0,93,0.00,,,-99.99,WeatherLink 5.7,2013-05-04 10:33:00,
2013-05-04 05:48:00,48.3,46.4,29.84,NNE,22,0.0,3.0,93,0.00,,,-99.99,WeatherLink 5.7,2013-05-04 10:48:00,
2013-05-04 06:03:00,48.2,46.3,29.85,NE,45,0.0,3.0,93,0.00,,,-99.99,WeatherLink 5.7,2013-05-04 11:03:00,
2013-05-04 06:18:00,48.0,45.8,29.85,NE,45,0.0,1.0,92,0.00,,,-99.99,WeatherLink 5.7,2013-05-04 11:18:00,
2013-05-04 06:33:00,48.2,46.0,29.86,NNE,22,0.0,5.0,92,0.00,,,-99.99,WeatherLink 5.7,2013-05-04 11:33:00,
2013-05-04 06:48:00,48.3,46.1,29.86,NNE,22,0.0,6.0,92,0.00,,,-99.99,WeatherLink 5.7,2013-05-04 11:48:00,
2013-05-04 07:03:00,48.8,46.3,29.86,NNE,22,0.0,5.0,91,0.00,,,-99.99,WeatherLink 5.7,2013-05-04 12:03:00,
2013-05-04 07:18:00,49.4,46.9,29.87,SSE,157,0.0,5.0,91,0.00,,,-99.99,WeatherLink 5.7,2013-05-04 12:18:00,
2013-05-04 07:33:00,50.4,47.6,29.87,NE,45,0.0,6.0,90,0.00,,,-99.99,WeatherLink 5.7,2013-05-04 12:33:00,
2013-05-04 07:48:00,51.3,47.9,29.87,NNE,22,0.0,5.0,88,0.00,,,-99.99,WeatherLink 5.7,2013-05-04 12:48:00,
2013-05-04 08:03:00,51.7,48.0,29.87,North,0,0.0,3.0,87,0.00,,,-99.99,WeatherLink 5.7,2013-05-04 13:03:00,
2013-05-04 08:18:00,52.9,48.8,29.87,NE,45,0.0,6.0,86,0.00,,,-99.99,WeatherLink 5.7,2013-05-04 13:18:00,
2013-05-04 08:33:00,54.1,49.4,29.87,North,0,0.0,6.0,84,0.00,,,-99.99,WeatherLink 5.7,2013-05-04 13:33:00,
2013-05-04 08:48:00,54.7,49.3,29.87,NNE,22,0.0,5.0,82,0.00,,,-99.99,WeatherLink 5.7,2013-05-04 13:48:00,
2013-05-04 09:03:00,54.8,49.1,29.88,NE,45,0.0,4.0,81,0.00,,,-99.99,WeatherLink 5.7,2013-05-04 14:03:00,
2013-05-04 09:18:00,55.0,49.6,29.88,North,0,0.0,3.0,82,0.00,,,-99.99,WeatherLink 5.7,2013-05-04 14:18:00,
2013-05-04 09:33:00,55.1,49.7,29.89,NNE,22,0.0,6.0,82,0.00,,,-99.99,WeatherLink 5.7,2013-05-04 14:33:00,
2013-05-04 09:48:00,55.0,50.3,29.88,NNE,22,0.0,4.0,84,0.01,,,-99.99,WeatherLink 5.7,2013-05-04 14:48:00,
2013-05-04 10:03:00,54.8,50.4,29.89,ESE,112,0.0,3.0,85,0.01,,,-99.99,WeatherLink 5.7,2013-05-04 15:03:00,
2013-05-04 10:18:00,55.6,51.2,29.90,East,90,0.0,3.0,85,0.01,,,-99.99,WeatherLink 5.7,2013-05-04 15:18:00,
2013-05-04 10:33:00,56.5,51.7,29.90,NE,45,0.0,5.0,84,0.01,,,-99.99,WeatherLink 5.7,2013-05-04 15:33:00,
2013-05-04 10:48:00,58.0,52.5,29.89,ESE,112,0.0,4.0,82,0.00,,,-99.99,WeatherLink 5.7,2013-05-04 15:48:00,
2013-05-04 11:03:00,60.4,53.9,29.89,NNE,22,0.0,6.0,79,0.00,,,-99.99,WeatherLink 5.7,2013-05-04 16:03:00,
2013-05-04 11:18:00,61.6,53.6,29.88,North,0,1.0,6.0,75,0.00,,,-99.99,WeatherLink 5.7,2013-05-04 16:18:00,
2013-05-04 11:33:00,59.8,52.2,29.89,SE,135,1.0,5.0,76,0.01,,,-99.99,WeatherLink 5.7,2013-05-04 16:33:00,
2013-05-04 11:48:00,57.8,52.3,29.90,NE,45,0.0,3.0,82,0.02,,,-99.99,WeatherLink 5.7,2013-05-04 16:48:00,
2013-05-04 12:03:00,56.7,52.2,29.90,East,90,0.0,4.0,85,0.02,,,-99.99,WeatherLink 5.7,2013-05-04 17:03:00,
2013-05-04 12:18:00,56.3,52.5,29.90,East,90,0.0,2.0,87,0.03,,,-99.99,WeatherLink 5.7,2013-05-04 17:18:00,
2013-05-04 12:33:00,56.7,53.2,29.88,North,0,0.0,3.0,88,0.02,,,-99.99,WeatherLink 5.7,2013-05-04 17:33:00,
2013-05-04 12:48:00,58.9,56.0,29.88,North,0,1.0,5.0,90,0.01,,,-99.99,WeatherLink 5.7,2013-05-04 17:48:00,
2013-05-04 13:03:00,60.9,55.7,29.87,North,0,1.0,7.0,83,0.01,,,-99.99,WeatherLink 5.7,2013-05-04 18:03:00,
2013-05-04 13:18:00,63.1,55.0,29.86,North,0,2.0,6.0,75,0.00,,,-99.99,WeatherLink 5.7,2013-05-04 18:18:00,
2013-05-04 13:33:00,64.2,55.4,29.86,North,0,1.0,7.0,73,0.00,,,-99.99,WeatherLink 5.7,2013-05-04 18:33:00,
2013-05-04 13:48:00,65.2,55.2,29.86,NNE,22,1.0,9.0,70,0.00,,,-99.99,WeatherLink 5.7,2013-05-04 18:48:00,
2013-05-04 14:03:00,66.1,55.2,29.85,NNE,22,1.0,11.0,68,0.00,,,-99.99,WeatherLink 5.7,2013-05-04 19:03:00,
2013-05-04 14:18:00,66.9,56.0,29.85,North,0,2.0,11.0,68,0.00,,,-99.99,WeatherLink 5.7,2013-05-04 19:18:00,
2013-05-04 14:33:00,67.6,54.1,29.85,North,0,2.0,10.0,62,0.00,,,-99.99,WeatherLink 5.7,2013-05-04 19:33:00,
2013-05-04 14:48:00,67.8,52.9,29.85,North,0,1.0,11.0,59,0.00,,,-99.99,WeatherLink 5.7,2013-05-04 19:48:00,
2013-05-04 15:03:00,68.6,54.2,29.84,North,0,1.0,8.0,60,0.00,,,-99.99,WeatherLink 5.7,2013-05-04 20:03:00,
2013-05-04 15:18:00,69.9,52.5,29.84,North,0,2.0,13.0,54,0.00,,,-99.99,WeatherLink 5.7,2013-05-04 20:18:00,
2013-05-04 15:33:00,70.4,51.9,29.84,SE,135,2.0,11.0,52,0.00,,,-99.99,WeatherLink 5.7,2013-05-04 20:33:00,
2013-05-04 15:48:00,69.6,51.2,29.83,ESE,112,3.0,15.0,52,0.00,,,-99.99,WeatherLink 5.7,2013-05-04 20:48:00,
2013-05-04 16:03:00,70.8,50.1,29.83,SE,135,2.0,12.0,48,0.00,,,-99.99,WeatherLink 5.7,2013-05-04 21:03:00,
2013-05-04 16:18:00,69.3,50.4,29.84,ESE,112,4.0,14.0,51,0.00,,,-99.99,WeatherLink 5.7,2013-05-04 21:18:00,
2013-05-04 16:33:00,68.6,49.7,29.84,SE,135,4.0,14.0,51,0.00,,,-99.99,WeatherLink 5.7,2013-05-04 21:33:00,
2013-05-04 16:48:00,68.4,49.6,29.84,SE,135,2.0,13.0,51,0.00,,,-99.99,WeatherLink 5.7,2013-05-04 21:48:00,
2013-05-04 17:03:00,68.4,49.6,29.84,SE,135,2.0,14.0,51,0.00,,,-99.99,WeatherLink 5.7,2013-05-04 22:03:00,
2013-05-04 17:18:00,68.1,48.2,29.86,ESE,112,2.0,14.0,49,0.00,,,-99.99,WeatherLink 5.7,2013-05-04 22:18:00,
2013-05-04 17:33:00,66.9,48.7,29.86,SE,135,1.0,11.0,52,0.00,,,-99.99,WeatherLink 5.7,2013-05-04 22:33:00,
2013-05-04 17:48:00,66.8,49.6,29.86,ESE,112,1.0,12.0,54,0.00,,,-99.99,WeatherLink 5.7,2013-05-04 22:48:00,
2013-05-04 18:03:00,66.4,49.2,29.86,ESE,112,1.0,12.0,54,0.00,,,-99.99,WeatherLink 5.7,2013-05-04 23:03:00,
2013-05-04 18:18:00,66.9,49.7,29.86,SE,135,1.0,9.0,54,0.00,,,-99.99,WeatherLink 5.7,2013-05-04 23:18:00,
2013-05-04 18:33:00,67.3,50.1,29.86,ESE,112,2.0,11.0,54,0.00,,,-99.99,WeatherLink 5.7,2013-05-04 23:33:00,
2013-05-04 18:48:00,66.8,49.6,29.86,SE,135,1.0,14.0,54,0.00,,,-99.99,WeatherLink 5.7,2013-05-04 23:48:00,
2013-05-04 19:03:00,66.3,49.6,29.86,ESE,112,1.0,7.0,55,0.00,,,-99.99,WeatherLink 5.7,2013-05-05 00:03:00,
2013-05-04 19:18:00,66.0,50.3,29.87,SE,135,1.0,7.0,57,0.00,,,-99.99,WeatherLink 5.7,2013-05-05 00:18:00,
2013-05-04 19:33:00,65.5,49.9,29.87,ESE,112,0.0,2.0,57,0.00,,,-99.99,WeatherLink 5.7,2013-05-05 00:33:00,
2013-05-04 19:48:00,65.2,50.0,29.87,SE,135,0.0,5.0,58,0.00,,,-99.99,WeatherLink 5.7,2013-05-05 00:48:00,
2013-05-04 20:04:00,64.8,49.7,29.87,ESE,112,1.0,5.0,58,0.00,,,-99.99,WeatherLink 5.7,2013-05-05 01:04:00,
2013-05-04 20:20:00,64.5,48.9,29.87,ESE,112,0.0,4.0,57,0.00,,,-99.99,WeatherLink 5.7,2013-05-05 01:20:00,
2013-05-04 20:33:00,64.3,49.2,29.88,ESE,112,0.0,4.0,58,0.00,,,-99.99,WeatherLink 5.7,2013-05-05 01:33:00,
2013-05-04 20:48:00,63.9,49.3,29.89,ESE,112,0.0,4.0,59,0.00,,,-99.99,WeatherLink 5.7,2013-05-05 01:48:00,
2013-05-04 21:03:00,63.4,48.8,29.89,North,-999,0.0,0.0,59,0.00,,,-99.99,WeatherLink 5.7,2013-05-05 02:03:00,
2013-05-04 21:18:00,62.9,48.8,29.89,ESE,112,0.0,1.0,60,0.00,,,-99.99,WeatherLink 5.7,2013-05-05 02:18:00,
2013-05-04 21:33:00,62.4,48.8,29.90,North,-999,0.0,0.0,61,0.00,,,-99.99,WeatherLink 5.7,2013-05-05 02:33:00,
2013-05-04 21:48:00,60.4,49.0,29.91,North,-999,0.0,0.0,66,0.00,,,-99.99,WeatherLink 5.7,2013-05-05 02:48:00,
2013-05-04 22:03:00,58.9,48.7,29.91,ESE,112,0.0,1.0,69,0.00,,,-99.99,WeatherLink 5.7,2013-05-05 03:03:00,
2013-05-04 22:18:00,58.7,48.9,29.91,North,-999,0.0,0.0,70,0.00,,,-99.99,WeatherLink 5.7,2013-05-05 03:18:00,
2013-05-04 22:33:00,58.7,48.9,29.91,ESE,112,0.0,1.0,70,0.00,,,-99.99,WeatherLink 5.7,2013-05-05 03:33:00,
2013-05-04 22:48:00,58.7,48.9,29.91,North,-999,0.0,0.0,70,0.00,,,-99.99,WeatherLink 5.7,2013-05-05 03:48:00,
2013-05-04 23:03:00,58.6,49.2,29.92,ESE,112,0.0,3.0,71,0.00,,,-99.99,WeatherLink 5.7,2013-05-05 04:03:00,
2013-05-04 23:18:00,58.3,49.3,29.92,ESE,112,0.0,1.0,72,0.00,,,-99.99,WeatherLink 5.7,2013-05-05 04:18:00,
2013-05-04 23:33:00,57.8,49.2,29.92,ESE,112,0.0,2.0,73,0.00,,,-99.99,WeatherLink 5.7,2013-05-05 04:33:00,
2013-05-04 23:48:00,56.7,48.5,29.92,North,-999,0.0,0.0,74,0.00,,,-99.99,WeatherLink 5.7,2013-05-05 04:48:00,